Date String (YYYY-MM-DD hh:mm:ss) UTC,Instrument flags,Ambient pressure (hPa),Sample flow (lpm),Bypass flow (lpm),Sample temperature (°C),Ambient temperature (°C),ASC tube jacket temperature (°C),LED temperature (°C),Box temperature (°C),Sample RH (%),Span deviation,Mass concentration (μg/m³),Mass concentration (μg/m³),Mass concentration (μg/m³)
DateTimeUTC,F1_M11,P_M11,Q1_M11,Q2_M11,T1_M11,T2_M11,T3_M11,T4_M11,T5_M11,U1_M11,ZSPAN_M11,X0_M11,X2_M11,X1_M11
2022-06-22 11:00:00,,0833.4,4.99,0.00,30.2,29.1,00.0,39.1,32.0,12.6,0000.0,0008.68,0003.54,0002.27
2022-06-22 11:01:00,,0833.4,5.00,0.00,30.2,29.1,00.0,39.1,32.0,12.6,0000.0,0008.69,0003.53,0002.27
2022-06-22 11:02:00,,0833.4,5.01,0.00,30.2,29.1,00.0,39.1,32.0,12.6,0000.0,0008.59,0003.50,0002.26
2022-06-22 11:03:00,,0833.4,5.00,0.00,30.2,29.1,00.0,39.1,32.0,12.6,0000.0,0008.36,0003.45,0002.24
2022-06-22 11:04:00,,0833.5,5.00,0.00,30.2,29.1,00.0,39.1,32.0,12.6,0000.0,0008.57,0003.47,0002.25
2022-06-22 11:05:00,,0833.4,5.01,0.00,30.2,29.1,00.0,39.1,32.0,12.6,0000.0,0008.27,0003.47,0002.26
2022-06-22 11:06:00,,0833.4,5.00,0.00,30.2,29.1,00.0,39.1,32.0,12.6,0000.0,0007.46,0003.45,0002.27
2022-06-22 11:07:00,,0833.4,5.00,0.00,30.2,29.1,00.0,39.1,32.0,12.6,0000.0,0007.44,0003.43,0002.28
2022-06-22 11:08:00,,0833.4,5.01,0.00,30.2,29.1,00.0,39.1,32.0,12.5,0000.0,0007.44,0003.43,0002.28
2022-06-22 11:09:00,,0833.4,5.01,0.00,30.2,29.1,00.0,39.1,32.0,12.5,0000.0,0007.49,0003.46,0002.29
2022-06-22 11:10:00,,0833.4,5.00,0.00,30.2,29.1,00.0,39.1,32.0,12.5,0000.0,0007.45,0003.45,0002.30
2022-06-22 11:11:00,,0833.4,5.00,0.00,30.2,29.1,00.0,39.1,32.0,12.5,0000.0,0007.42,0003.42,0002.31
2022-06-22 11:12:00,,0833.4,5.00,0.00,30.2,29.1,00.0,39.1,32.0,12.4,0000.0,0007.42,0003.42,0002.31
2022-06-22 11:13:00,,0833.4,5.01,0.00,30.2,29.1,00.0,39.1,32.0,12.4,0000.0,0007.50,0003.45,0002.32
2022-06-22 11:14:00,,0833.4,4.98,0.00,30.2,29.0,00.0,39.1,31.9,12.4,0000.0,0007.65,0003.50,0002.36
2022-06-22 11:15:00,,0833.4,5.01,0.00,30.2,29.0,00.0,39.1,31.9,12.4,0000.0,0007.39,0003.51,0002.36
2022-06-22 11:16:00,,0833.4,5.00,0.00,30.1,29.0,00.0,39.1,31.9,12.4,0000.0,0007.46,0003.49,0002.37
2022-06-22 11:17:00,,0833.4,4.99,0.00,30.1,29.0,00.0,39.1,31.9,12.3,0000.0,0007.75,0003.49,0002.37
2022-06-22 11:18:00,,0833.4,4.99,0.00,30.1,29.0,00.0,39.1,31.9,12.3,0000.0,0007.73,0003.50,0002.39
2022-06-22 11:19:00,,0833.4,5.02,0.00,30.1,29.0,00.0,39.0,31.9,12.3,0000.0,0007.80,0003.53,0002.40
2022-06-22 11:20:00,,0833.4,4.99,0.00,30.1,29.0,00.0,39.0,31.9,12.3,0000.0,0007.86,0003.53,0002.42
2022-06-22 11:21:00,,0833.4,4.99,0.00,30.1,29.0,00.0,39.0,31.9,12.3,0000.0,0007.77,0003.51,0002.43
2022-06-22 11:22:00,,0833.4,5.00,0.00,30.1,29.0,00.0,39.0,31.9,12.3,0000.0,0007.76,0003.54,0002.44
2022-06-22 11:23:00,,0833.5,5.00,0.00,30.1,29.0,00.0,39.0,31.9,12.2,0000.0,0007.70,0003.54,0002.44
2022-06-22 11:24:00,,0833.4,4.99,0.00,30.1,29.0,00.0,39.0,31.9,12.2,0000.0,0007.87,0003.55,0002.45
2022-06-22 11:25:00,,0833.4,5.00,0.00,30.1,29.0,00.0,39.0,31.9,12.2,0000.0,0008.10,0003.52,0002.45
2022-06-22 11:26:00,,0833.4,5.01,0.00,30.1,29.0,00.0,39.0,31.9,12.2,0000.0,0008.45,0003.54,0002.47
2022-06-22 11:27:00,,0833.4,5.01,0.00,30.1,29.1,00.0,39.0,31.9,12.2,0000.0,0008.82,0003.58,0002.47
2022-06-22 11:28:00,,0833.4,4.99,0.00,30.1,29.1,00.0,39.0,31.9,12.2,0000.0,0008.52,0003.60,0002.48
2022-06-22 11:29:00,,0833.5,5.00,0.00,30.1,29.1,00.0,39.0,31.9,12.2,0000.0,0008.54,0003.62,0002.48
2022-06-22 11:30:00,,0833.5,5.00,0.00,30.1,29.1,00.0,39.0,31.9,12.2,0000.0,0008.53,0003.62,0002.50
2022-06-22 11:31:00,,0833.5,5.00,0.00,30.1,29.1,00.0,39.0,31.9,12.2,0000.0,0008.55,0003.65,0002.52
2022-06-22 11:32:00,,0833.5,5.00,0.00,30.1,29.1,00.0,39.0,31.9,12.2,0000.0,0008.66,0003.70,0002.53
2022-06-22 11:33:00,,0833.5,5.00,0.00,30.2,29.1,00.0,39.0,31.9,12.2,0000.0,0008.71,0003.71,0002.55
2022-06-22 11:34:00,,0833.6,4.99,0.00,30.2,29.1,00.0,39.0,32.0,12.2,0000.0,0008.66,0003.68,0002.57
2022-06-22 11:35:00,,0833.6,5.00,0.00,30.2,29.1,00.0,39.0,32.0,12.1,0000.0,0008.63,0003.68,0002.58
2022-06-22 11:36:00,,0833.6,5.01,0.00,30.2,29.1,00.0,39.0,32.0,12.1,0000.0,0008.44,0003.70,0002.59
2022-06-22 11:37:00,,0833.6,5.01,0.00,30.2,29.1,00.0,39.0,32.0,12.1,0000.0,0008.10,0003.70,0002.58
2022-06-22 11:38:00,,0833.6,5.00,0.00,30.2,29.1,00.0,39.0,32.0,12.1,0000.0,0007.81,0003.69,0002.58
2022-06-22 11:39:00,,0833.6,5.01,0.00,30.2,29.2,00.0,39.0,32.0,12.1,0000.0,0007.69,0003.68,0002.59
2022-06-22 11:40:00,,0833.6,5.00,0.00,30.2,29.2,00.0,39.0,32.0,12.1,0000.0,0007.59,0003.64,0002.59
2022-06-22 11:41:00,,0833.6,4.99,0.00,30.2,29.2,00.0,39.0,32.0,12.1,0000.0,0008.05,0003.61,0002.57
2022-06-22 11:42:00,,0833.6,5.00,0.00,30.2,29.2,00.0,39.1,32.0,12.1,0000.0,0008.21,0003.60,0002.55
2022-06-22 11:43:00,,0833.7,5.00,0.00,30.2,29.2,00.0,39.1,32.0,12.1,0000.0,0008.09,0003.55,0002.54
2022-06-22 11:44:00,,0833.6,5.01,0.00,30.2,29.2,00.0,39.1,32.0,12.1,0000.0,0008.52,0003.49,0002.53
2022-06-22 11:45:00,,0833.6,4.99,0.00,30.2,29.2,00.0,39.1,32.0,12.1,0000.0,0008.94,0003.50,0002.51
2022-06-22 11:46:00,,0833.6,5.00,0.00,30.2,29.2,00.0,39.1,32.0,12.1,0000.0,0009.25,0003.48,0002.48
2022-06-22 11:47:00,,0833.6,5.01,0.00,30.2,29.2,00.0,39.1,32.0,12.1,0000.0,0009.13,0003.46,0002.47
2022-06-22 11:48:00,,0833.7,5.00,0.00,30.2,29.2,00.0,39.1,32.0,12.2,0000.0,0009.23,0003.47,0002.46
2022-06-22 11:49:00,,0833.6,4.99,0.00,30.2,29.2,00.0,39.1,32.1,12.2,0000.0,0009.29,0003.51,0002.47
2022-06-22 11:50:00,,0833.7,5.01,0.00,30.3,29.2,00.0,39.1,32.1,12.2,0000.0,0009.35,0003.54,0002.47
2022-06-22 11:51:00,,0833.7,5.00,0.00,30.3,29.2,00.0,39.1,32.1,12.2,0000.0,0009.56,0003.54,0002.48
2022-06-22 11:52:00,,0833.7,4.99,0.00,30.3,29.2,00.0,39.1,32.1,12.2,0000.0,0009.12,0003.55,0002.49
2022-06-22 11:53:00,,0833.7,5.00,0.00,30.3,29.2,00.0,39.1,32.1,12.3,0000.0,0009.29,0003.58,0002.51
2022-06-22 11:54:00,,0833.7,5.01,0.00,30.3,29.2,00.0,39.1,32.1,12.3,0000.0,0009.88,0003.59,0002.50
2022-06-22 11:55:00,,0833.7,5.00,0.00,30.3,29.2,00.0,39.1,32.1,12.3,0000.0,0009.47,0003.65,0002.49
2022-06-22 11:56:00,,0833.7,4.99,0.00,30.3,29.2,00.0,39.1,32.1,12.4,0000.0,0009.15,0003.69,0002.51
2022-06-22 11:57:00,,0833.7,5.01,0.00,30.3,29.2,00.0,39.1,32.1,12.4,0000.0,0008.86,0003.71,0002.54
2022-06-22 11:58:00,,0833.7,5.00,0.00,30.3,29.2,00.0,39.1,32.1,12.4,0000.0,0008.86,0003.73,0002.56
2022-06-22 11:59:00,,0833.7,5.00,0.00,30.3,29.2,00.0,39.1,32.1,12.4,0000.0,0008.72,0003.73,0002.57
